User: anonymous   Login
Location: Unspecified
(0.0000°N, 0.0000°E)
Time: 19:08:05
(UTC+00:00)
Language:

LO-87 - Orbit

View from above orbital plane
View from above orbital plane
View from above satellite
View from above satellite

Ground track
Ground track

The orbit data is extracted from the following two-line orbital elements,

1 41557U 16033B   19340.51167063  .00000864  00000-0  34719-4 0  9997
2 41557  97.4130  67.0022 0015034  58.3286 301.9417 15.27579659196164
Epoch (UTC): 06 December 2019 12:16:48
Eccentricity: 0.0015034
inclination: 97.4130°
perigee height: 473 km
apogee height: 493 km
right ascension of ascending node: 67.0022°
argument of perigee: 58.3286°
revolutions per day: 15.27579659
mean anomaly at epoch: 301.9417°
orbit number at epoch: 19616

The dashed part of the orbit path shows where the satellite is in the earth's shadow,  

DLR